sat.trackr.live / text

‹ back to catalog

STARLINK-36796

NORAD 67722 · 2026-026B

PAYLOAD ACTIVE UNKNOWN

§ Identity

Operator
Country
US
Launch date
2026-02-11
Launch site
AFWTR
Launch vehicle
Mass (kg)
RCS (m²)

Purposes: comms

External: N2YO · Heavens-Above · Gunter

§ Orbital elements

Epoch: 2026-05-25T02:38:52.484352Z

Period
93.91 min
Inclination
97.2852°
Eccentricity
0.0000304
Mean motion
15.33451964 rev/d
Perigee alt
465.3 km
Apogee alt
465.7 km
Semi-major
6,843.7 km
B*
4.6237e-4
RAAN
198.5732°
Arg perigee
178.9970°
Mean anomaly
181.1273°
Rev number
1,583

§ Raw data

STARLINK-367961 67722U 26026B   26145.11032968  .00014885  00000+0  46237-3 0  99982 67722  97.2852 198.5732 0000304 178.9970 181.1273 15.33451964 15833

JSON: /api/v1/satellites/67722 · /tle

For live sub-satellite position, see the globe view (requires WebGL).

§ Visibility from observer

Set your observer location to see the next 7 days of passes ≥ 10°. The values pass through the URL so the page stays shareable.

No JS? Fill the form by hand. The geolocation button needs JavaScript.